Spokane Felts, WA
on Wednesday, November 7, 2012

Wednesday
Previous Day Next Day
Daily Summary
 ActualAverageRecord
Temperature
Mean Temperature °F 40°F  
Max Temperature 54°F 48°F 61°F (2006)
Min Temperature 32°F 32°F 16°F (2003)
Degree Days
Heating Degree Days 22 25  
Month to date heating degree days 104 168  
Since 1 July heating degree days 663 905  
Cooling Degree Days 0 0  
Month to date cooling degree days 0 0  
Year to date cooling degree days 509 406  
Moisture
Dew Point 32°F   
Average Humidity 61    
Maximum Humidity 83    
Minimum Humidity 38    
Precipitation
Precipitation 0.00 in 0.07 in 0.58 in (2008)
Month to date precipitation 0.44 0.47  
Year to date precipitation 16.03 13.42  
Wind
Wind Speed 7 mph   
Max Wind Speed 21 mph   
Max Gust Speed 24 mph   
Visibility 10 miles   
Events     

Key: T is trace of precipitation, MM is missing value
Source: NWS Daily Summary
Time(PST)TemperatureDew PointHumidity Pressure Visibility Wind DirectionWind SpeedGust SpeedPrecipitationEvents Conditions
12:53 AM 54.0°F 46.9°F 77% 29.87 in 10.0 miles Variable 4.6 mph - N/A   Overcast
1:53 AM 53.1°F 46.9°F 80% 29.87 in 10.0 miles West 4.6 mph - 0.00 in   Overcast
2:53 AM 53.1°F 46.0°F 77% 29.87 in 10.0 miles SW 9.2 mph - N/A   Overcast
3:53 AM 51.1°F 43.0°F 74% 29.89 in 10.0 miles WSW 6.9 mph - 0.00 in   Overcast
4:53 AM 48.0°F 35.1°F 61% 29.90 in 10.0 miles Variable 6.9 mph - N/A   Scattered Clouds
5:53 AM 45.0°F 32.0°F 60% 29.93 in 10.0 miles WSW 6.9 mph - N/A   Clear
6:53 AM 45.0°F 30.9°F 58% 29.96 in 10.0 miles WSW 6.9 mph - N/A   Clear
7:53 AM 45.0°F 32.0°F 60% 29.98 in 10.0 miles WSW 16.1 mph 24.2 mph 0.01 in   Partly Cloudy
8:53 AM 46.0°F 28.9°F 51% 29.98 in 10.0 miles WSW 10.4 mph - N/A   Clear
9:53 AM 48.9°F 30.0°F 48% 29.99 in 10.0 miles SW 13.8 mph - N/A   Partly Cloudy
10:53 AM 52.0°F 30.9°F 45% 30.00 in 10.0 miles WSW 13.8 mph - N/A   Scattered Clouds
11:53 AM 51.1°F 30.0°F 44% 30.00 in 10.0 miles WSW 6.9 mph 17.3 mph N/A   Mostly Cloudy
12:53 PM 52.0°F 28.9°F 41% 29.99 in 10.0 miles WSW 11.5 mph - N/A   Clear
1:53 PM 51.1°F 28.0°F 41% 30.00 in 10.0 miles West 11.5 mph 17.3 mph N/A   Scattered Clouds
2:53 PM 51.8°F 26.6°F 38% 30.00 in 10.0 miles SW 8.1 mph - N/A   Scattered Clouds
3:53 PM 50.0°F 26.1°F 39% 30.01 in 10.0 miles SW 15.0 mph - N/A   Scattered Clouds
4:53 PM 46.0°F 23.0°F 40% 30.03 in 10.0 miles SW 8.1 mph - N/A   Partly Cloudy
5:53 PM 41.0°F 26.1°F 55% 30.04 in 10.0 miles Calm Calm - N/A   Clear
6:53 PM 39.9°F 28.9°F 65% 30.04 in 10.0 miles Calm Calm - N/A   Clear
7:53 PM 39.0°F 30.0°F 70% 30.04 in 10.0 miles Calm Calm - N/A   Clear
8:53 PM 37.9°F 28.9°F 70% 30.03 in 10.0 miles NNE 3.5 mph - N/A   Clear
9:53 PM 37.0°F 28.9°F 73% 30.02 in 10.0 miles NNE 4.6 mph - N/A   Clear
10:53 PM 36.0°F 28.9°F 76% 30.00 in 10.0 miles Calm Calm - N/A   Clear
11:53 PM 34.0°F 28.0°F 79% 30.00 in 10.0 miles NE 3.5 mph - N/A   Clear
Moon Phase
Nov. 07 Nov. 13 Nov. 20 Nov. 28 Dec. 06
Sunrise:06:43 AM (PST) Moon Rise:No Moon Rise/
Sunset:04:21 PM (PST) Moon Set:12:59 PM (PST)11/7

Copyright © 2014 The Weather Underground, Inc.